Terminal Aerodrome Forecast
Issued by NWS Louisville, KY

Home | Current Version | Previous Version | Text Only | Print | Product List | Glossary On
Versions: 1 2 3 4 5 6 7 8 9 10 11 12 13 14 15 16 17 18 19
000
FTUS43 KLMK 271200 AAA
TAFLEX
TAF AMD
KLEX 271220Z 2712/2812 22009KT 6SM BR VCTS SCT060CB BKN110
      TEMPO 2712/2714 2SM -TSRA BR BKN025CB
     FM271400 25015G21KT P6SM VCTS BKN040CB
     FM271800 25017G26KT P6SM VCTS BKN040CB
     FM280000 32008KT P6SM SCT050=

USA.gov is the U.S. government's official web portal to all federal, state and local government web resources and services.